Location: Boursonne
(49.2024°N, 3.0468°E)
Time: 08:41:46
(UTC+00:00)

Cosmos 2369 Rocket - Pass Details

Date: 03 March 2021
Orbit: 829 x 852 km, 71.0° (Epoch: 12 April)

Event Time Altitude Azimuth Distance (km) Brightness Sun altitude
Rises 21:28:10 0° 334° (NNW) 3,384 6.2 -36.7°
Reaches altitude 10° 21:30:49 10° 343° (NNW) 2,448 5.2 -37.0°
Enters shadow 21:32:57 21° 358° (N) 1,779 4.2 -37.3°
